![]() |
EMODnet Physics ERDDAP
Easier access to scientific data |
log in|
Brought to you by EMODnet Physics |
| Dataset Title: | NDBC - Collection of dew point temperature (DEWT) TimeSeries - IN SITU MultiPointTimeSeriesObservation
|
| Institution: | NDBC (Dataset ID: TS_DEWT_NDBC) |
| Information: | Summary
| License
| FGDC
| ISO 19115
| Metadata
| Background
| Subset
| Data Access Form
| Make a graph
|
| Name | Last modified | Size | Description | |
|---|---|---|---|---|
| Parent Directory | - | - | ||
| CSPA2_TS_DEWT_012007.nc | 07-Oct-2024 05:23 | 427975 | ||
| CSPA2_TS_DEWT_012008.nc | 07-Oct-2024 05:45 | 427662 | ||
| CSPA2_TS_DEWT_012009.nc | 07-Oct-2024 05:59 | 428135 | ||
| CSPA2_TS_DEWT_012010.nc | 07-Oct-2024 06:17 | 426911 | ||
| CSPA2_TS_DEWT_012011.nc | 07-Oct-2024 06:39 | 917173 | ||
| CSPA2_TS_DEWT_012012.nc | 07-Oct-2024 07:04 | 429973 | ||
| CSPA2_TS_DEWT_012013.nc | 07-Oct-2024 07:28 | 433696 | ||
| CSPA2_TS_DEWT_012014.nc | 07-Oct-2024 08:03 | 429648 | ||
| CSPA2_TS_DEWT_012015.nc | 07-Oct-2024 08:40 | 428820 | ||
| CSPA2_TS_DEWT_012016.nc | 07-Oct-2024 09:15 | 428509 | ||
| CSPA2_TS_DEWT_012018.nc | 07-Oct-2024 10:33 | 430378 | ||
| CSPA2_TS_DEWT_012019.nc | 07-Oct-2024 11:17 | 429444 | ||
| CSPA2_TS_DEWT_012020.nc | 07-Oct-2024 11:54 | 912685 | ||
| CSPA2_TS_DEWT_012021.nc | 07-Oct-2024 12:29 | 434499 | ||
| CSPA2_TS_DEWT_012022.nc | 07-Oct-2024 13:15 | 433561 | ||
| CSPA2_TS_DEWT_012023.nc | 07-Oct-2024 13:59 | 426145 | ||
| CSPA2_TS_DEWT_012025.nc | 07-Feb-2025 14:20 | 428540 | ||
| CSPA2_TS_DEWT_012026.nc | 02-Feb-2026 14:21 | 419634 | ||
| CSPA2_TS_DEWT_022007.nc | 07-Oct-2024 05:24 | 429992 | ||
| CSPA2_TS_DEWT_022009.nc | 07-Oct-2024 06:00 | 916133 | ||
| CSPA2_TS_DEWT_022010.nc | 07-Oct-2024 06:20 | 428118 | ||
| CSPA2_TS_DEWT_022011.nc | 07-Oct-2024 06:41 | 432324 | ||
| CSPA2_TS_DEWT_022013.nc | 07-Oct-2024 07:31 | 429838 | ||
| CSPA2_TS_DEWT_022014.nc | 07-Oct-2024 08:05 | 429534 | ||
| CSPA2_TS_DEWT_022016.nc | 07-Oct-2024 09:18 | 426443 | ||
| CSPA2_TS_DEWT_022017.nc | 07-Oct-2024 09:54 | 430423 | ||
| CSPA2_TS_DEWT_022018.nc | 07-Oct-2024 10:37 | 426465 | ||
| CSPA2_TS_DEWT_022019.nc | 07-Oct-2024 11:20 | 909076 | ||
| CSPA2_TS_DEWT_022020.nc | 07-Oct-2024 11:57 | 431356 | ||
| CSPA2_TS_DEWT_022021.nc | 07-Oct-2024 12:33 | 431813 | ||
| CSPA2_TS_DEWT_022022.nc | 07-Oct-2024 13:19 | 429046 | ||
| CSPA2_TS_DEWT_022023.nc | 07-Oct-2024 14:04 | 428061 | ||
| CSPA2_TS_DEWT_022025.nc | 03-Mar-2025 07:18 | 425726 | ||
| CSPA2_TS_DEWT_022026.nc | 01-Mar-2026 14:12 | 429497 | ||
| CSPA2_TS_DEWT_032007.nc | 07-Oct-2024 05:26 | 425937 | ||
| CSPA2_TS_DEWT_032008.nc | 07-Oct-2024 05:48 | 913449 | ||
| CSPA2_TS_DEWT_032009.nc | 07-Oct-2024 06:01 | 429486 | ||
| CSPA2_TS_DEWT_032010.nc | 07-Oct-2024 06:21 | 435273 | ||
| CSPA2_TS_DEWT_032011.nc | 07-Oct-2024 06:42 | 429817 | ||
| CSPA2_TS_DEWT_032013.nc | 07-Oct-2024 07:35 | 424238 | ||
| CSPA2_TS_DEWT_032014.nc | 07-Oct-2024 08:08 | 429954 | ||
| CSPA2_TS_DEWT_032016.nc | 07-Oct-2024 09:21 | 427988 | ||
| CSPA2_TS_DEWT_032017.nc | 07-Oct-2024 09:57 | 419555 | ||
| CSPA2_TS_DEWT_032018.nc | 07-Oct-2024 10:40 | 993629 | ||
| CSPA2_TS_DEWT_032019.nc | 07-Oct-2024 11:23 | 434558 | ||
| CSPA2_TS_DEWT_032020.nc | 07-Oct-2024 11:59 | 432382 | ||
| CSPA2_TS_DEWT_032021.nc | 07-Oct-2024 12:37 | 428467 | ||
| CSPA2_TS_DEWT_032022.nc | 07-Oct-2024 13:23 | 425226 | ||
| CSPA2_TS_DEWT_032023.nc | 07-Oct-2024 14:07 | 428133 | ||
| CSPA2_TS_DEWT_032025.nc | 02-Apr-2025 07:21 | 428668 | ||
| CSPA2_TS_DEWT_032026.nc | 23-Mar-2026 13:40 | 908365 | ||
| CSPA2_TS_DEWT_042007.nc | 07-Oct-2024 05:27 | 995948 | ||
| CSPA2_TS_DEWT_042008.nc | 07-Oct-2024 05:49 | 434417 | ||
| CSPA2_TS_DEWT_042009.nc | 07-Oct-2024 06:02 | 430011 | ||
| CSPA2_TS_DEWT_042010.nc | 07-Oct-2024 06:23 | 426833 | ||
| CSPA2_TS_DEWT_042011.nc | 07-Oct-2024 06:44 | 429336 | ||
| CSPA2_TS_DEWT_042013.nc | 07-Oct-2024 07:38 | 427698 | ||
| CSPA2_TS_DEWT_042014.nc | 07-Oct-2024 08:11 | 426762 | ||
| CSPA2_TS_DEWT_042015.nc | 07-Oct-2024 08:43 | 918330 | ||
| CSPA2_TS_DEWT_042016.nc | 07-Oct-2024 09:25 | 906199 | ||
| CSPA2_TS_DEWT_042017.nc | 07-Oct-2024 10:01 | 435448 | ||
| CSPA2_TS_DEWT_042018.nc | 07-Oct-2024 10:42 | 432259 | ||
| CSPA2_TS_DEWT_042019.nc | 07-Oct-2024 11:27 | 429655 | ||
| CSPA2_TS_DEWT_042020.nc | 07-Oct-2024 12:01 | 429840 | ||
| CSPA2_TS_DEWT_042021.nc | 07-Oct-2024 12:42 | 430170 | ||
| CSPA2_TS_DEWT_042022.nc | 07-Oct-2024 13:26 | 430374 | ||
| CSPA2_TS_DEWT_042023.nc | 07-Oct-2024 14:12 | 1144113 | ||
| CSPA2_TS_DEWT_042025.nc | 01-May-2025 05:55 | 422852 | ||
| CSPA2_TS_DEWT_052007.nc | 07-Oct-2024 05:29 | 434747 | ||
| CSPA2_TS_DEWT_052008.nc | 07-Oct-2024 05:50 | 432218 | ||
| CSPA2_TS_DEWT_052009.nc | 07-Oct-2024 06:04 | 424683 | ||
| CSPA2_TS_DEWT_052010.nc | 07-Oct-2024 06:24 | 429401 | ||
| CSPA2_TS_DEWT_052011.nc | 07-Oct-2024 06:45 | 429225 | ||
| CSPA2_TS_DEWT_052013.nc | 07-Oct-2024 07:41 | 429545 | ||
| CSPA2_TS_DEWT_052014.nc | 07-Oct-2024 08:14 | 995550 | ||
| CSPA2_TS_DEWT_052015.nc | 07-Oct-2024 08:46 | 434587 | ||
| CSPA2_TS_DEWT_052016.nc | 07-Oct-2024 09:29 | 429837 | ||
| CSPA2_TS_DEWT_052017.nc | 07-Oct-2024 10:04 | 428441 | ||
| CSPA2_TS_DEWT_052018.nc | 07-Oct-2024 10:46 | 427376 | ||
| CSPA2_TS_DEWT_052019.nc | 07-Oct-2024 11:30 | 427948 | ||
| CSPA2_TS_DEWT_052020.nc | 07-Oct-2024 12:04 | 430384 | ||
| CSPA2_TS_DEWT_052021.nc | 07-Oct-2024 12:45 | 905191 | ||
| CSPA2_TS_DEWT_052022.nc | 07-Oct-2024 13:29 | 428753 | ||
| CSPA2_TS_DEWT_052023.nc | 07-Oct-2024 14:17 | 422421 | ||
| CSPA2_TS_DEWT_052025.nc | 01-Jun-2025 06:12 | 429661 | ||
| CSPA2_TS_DEWT_062007.nc | 07-Oct-2024 05:32 | 1624368 | ||
| CSPA2_TS_DEWT_062008.nc | 07-Oct-2024 05:51 | 1477639 | ||
| CSPA2_TS_DEWT_062009.nc | 07-Oct-2024 06:04 | 1462003 | ||
| CSPA2_TS_DEWT_062010.nc | 07-Oct-2024 06:26 | 1466469 | ||
| CSPA2_TS_DEWT_062011.nc | 07-Oct-2024 06:47 | 1626569 | ||
| CSPA2_TS_DEWT_062013.nc | 07-Oct-2024 07:43 | 1625778 | ||
| CSPA2_TS_DEWT_062014.nc | 07-Oct-2024 08:16 | 1626446 | ||
| CSPA2_TS_DEWT_062015.nc | 07-Oct-2024 08:50 | 1626648 | ||
| CSPA2_TS_DEWT_062016.nc | 07-Oct-2024 09:33 | 1626900 | ||
| CSPA2_TS_DEWT_062017.nc | 07-Oct-2024 10:06 | 1626820 | ||
| CSPA2_TS_DEWT_062018.nc | 07-Oct-2024 10:49 | 1626470 | ||
| CSPA2_TS_DEWT_062019.nc | 07-Oct-2024 11:34 | 1624772 | ||
| CSPA2_TS_DEWT_062020.nc | 07-Oct-2024 12:07 | 1626255 | ||
| CSPA2_TS_DEWT_062021.nc | 07-Oct-2024 12:49 | 1464216 | ||
| CSPA2_TS_DEWT_062022.nc | 07-Oct-2024 13:33 | 1626907 | ||
| CSPA2_TS_DEWT_062023.nc | 07-Oct-2024 14:22 | 1626969 | ||
| CSPA2_TS_DEWT_062025.nc | 16-Aug-2025 04:58 | 428157 | ||
| CSPA2_TS_DEWT_072007.nc | 07-Oct-2024 05:34 | 428419 | ||
| CSPA2_TS_DEWT_072008.nc | 07-Oct-2024 05:52 | 1473163 | ||
| CSPA2_TS_DEWT_072009.nc | 07-Oct-2024 06:06 | 1468766 | ||
| CSPA2_TS_DEWT_072010.nc | 07-Oct-2024 06:27 | 1464319 | ||
| CSPA2_TS_DEWT_072011.nc | 07-Oct-2024 06:48 | 1469923 | ||
| CSPA2_TS_DEWT_072012.nc | 07-Oct-2024 07:07 | 1473486 | ||
| CSPA2_TS_DEWT_072013.nc | 07-Oct-2024 07:46 | 1470040 | ||
| CSPA2_TS_DEWT_072014.nc | 07-Oct-2024 08:19 | 1469820 | ||
| CSPA2_TS_DEWT_072015.nc | 07-Oct-2024 08:55 | 1469864 | ||
| CSPA2_TS_DEWT_072016.nc | 07-Oct-2024 09:35 | 1473485 | ||
| CSPA2_TS_DEWT_072017.nc | 07-Oct-2024 10:10 | 1469845 | ||
| CSPA2_TS_DEWT_072018.nc | 07-Oct-2024 10:54 | 1469594 | ||
| CSPA2_TS_DEWT_072019.nc | 07-Oct-2024 11:38 | 1469730 | ||
| CSPA2_TS_DEWT_072020.nc | 07-Oct-2024 12:11 | 1472817 | ||
| CSPA2_TS_DEWT_072021.nc | 07-Oct-2024 12:54 | 1149654 | ||
| CSPA2_TS_DEWT_072022.nc | 07-Oct-2024 13:35 | 1469753 | ||
| CSPA2_TS_DEWT_072023.nc | 07-Oct-2024 14:25 | 1469454 | ||
| CSPA2_TS_DEWT_072025.nc | 16-Aug-2025 04:58 | 428338 | ||
| CSPA2_TS_DEWT_082007.nc | 07-Oct-2024 05:36 | 428104 | ||
| CSPA2_TS_DEWT_082008.nc | 07-Oct-2024 05:53 | 1477293 | ||
| CSPA2_TS_DEWT_082009.nc | 07-Oct-2024 06:07 | 1626578 | ||
| CSPA2_TS_DEWT_082010.nc | 07-Oct-2024 06:28 | 1472922 | ||
| CSPA2_TS_DEWT_082011.nc | 07-Oct-2024 06:50 | 1470676 | ||
| CSPA2_TS_DEWT_082012.nc | 07-Oct-2024 07:11 | 1626834 | ||
| CSPA2_TS_DEWT_082013.nc | 07-Oct-2024 07:48 | 1626583 | ||
| CSPA2_TS_DEWT_082014.nc | 07-Oct-2024 08:23 | 1626759 | ||
| CSPA2_TS_DEWT_082015.nc | 07-Oct-2024 08:58 | 1625251 | ||
| CSPA2_TS_DEWT_082016.nc | 07-Oct-2024 09:38 | 1625551 | ||
| CSPA2_TS_DEWT_082017.nc | 07-Oct-2024 10:13 | 1626810 | ||
| CSPA2_TS_DEWT_082018.nc | 07-Oct-2024 10:57 | 1626796 | ||
| CSPA2_TS_DEWT_082019.nc | 07-Oct-2024 11:41 | 1626363 | ||
| CSPA2_TS_DEWT_082020.nc | 07-Oct-2024 12:14 | 1626801 | ||
| CSPA2_TS_DEWT_082021.nc | 07-Oct-2024 12:58 | 1159244 | ||
| CSPA2_TS_DEWT_082022.nc | 07-Oct-2024 13:39 | 1626652 | ||
| CSPA2_TS_DEWT_082023.nc | 07-Oct-2024 14:29 | 1627015 | ||
| CSPA2_TS_DEWT_082025.nc | 01-Sep-2025 05:37 | 427649 | ||
| CSPA2_TS_DEWT_092007.nc | 07-Oct-2024 05:37 | 428083 | ||
| CSPA2_TS_DEWT_092008.nc | 07-Oct-2024 05:54 | 1475955 | ||
| CSPA2_TS_DEWT_092009.nc | 07-Oct-2024 06:08 | 1472977 | ||
| CSPA2_TS_DEWT_092010.nc | 07-Oct-2024 06:31 | 1474305 | ||
| CSPA2_TS_DEWT_092011.nc | 07-Oct-2024 06:51 | 1473352 | ||
| CSPA2_TS_DEWT_092012.nc | 07-Oct-2024 07:15 | 1467223 | ||
| CSPA2_TS_DEWT_092013.nc | 07-Oct-2024 07:51 | 1477040 | ||
| CSPA2_TS_DEWT_092014.nc | 07-Oct-2024 08:27 | 1477116 | ||
| CSPA2_TS_DEWT_092015.nc | 07-Oct-2024 09:01 | 1476783 | ||
| CSPA2_TS_DEWT_092016.nc | 07-Oct-2024 09:41 | 1476229 | ||
| CSPA2_TS_DEWT_092017.nc | 07-Oct-2024 10:17 | 1477010 | ||
| CSPA2_TS_DEWT_092018.nc | 07-Oct-2024 11:01 | 1476834 | ||
| CSPA2_TS_DEWT_092019.nc | 07-Oct-2024 11:44 | 1476939 | ||
| CSPA2_TS_DEWT_092020.nc | 07-Oct-2024 12:16 | 1477031 | ||
| CSPA2_TS_DEWT_092021.nc | 07-Oct-2024 13:01 | 1476856 | ||
| CSPA2_TS_DEWT_092022.nc | 07-Oct-2024 13:43 | 1476892 | ||
| CSPA2_TS_DEWT_092023.nc | 07-Oct-2024 14:33 | 1476358 | ||
| CSPA2_TS_DEWT_092025.nc | 01-Oct-2025 05:24 | 425740 | ||
| CSPA2_TS_DEWT_102007.nc | 07-Oct-2024 05:38 | 601634 | ||
| CSPA2_TS_DEWT_102008.nc | 07-Oct-2024 05:55 | 1476744 | ||
| CSPA2_TS_DEWT_102009.nc | 07-Oct-2024 06:10 | 1626467 | ||
| CSPA2_TS_DEWT_102010.nc | 07-Oct-2024 06:33 | 1626938 | ||
| CSPA2_TS_DEWT_102011.nc | 07-Oct-2024 06:53 | 1626958 | ||
| CSPA2_TS_DEWT_102012.nc | 07-Oct-2024 07:18 | 1626579 | ||
| CSPA2_TS_DEWT_102013.nc | 07-Oct-2024 07:53 | 1477402 | ||
| CSPA2_TS_DEWT_102014.nc | 07-Oct-2024 08:31 | 1626962 | ||
| CSPA2_TS_DEWT_102015.nc | 07-Oct-2024 09:04 | 1626928 | ||
| CSPA2_TS_DEWT_102016.nc | 07-Oct-2024 09:45 | 1626992 | ||
| CSPA2_TS_DEWT_102017.nc | 07-Oct-2024 10:21 | 1626882 | ||
| CSPA2_TS_DEWT_102018.nc | 07-Oct-2024 11:05 | 1626503 | ||
| CSPA2_TS_DEWT_102019.nc | 07-Oct-2024 11:47 | 1626040 | ||
| CSPA2_TS_DEWT_102020.nc | 07-Oct-2024 12:19 | 1626876 | ||
| CSPA2_TS_DEWT_102021.nc | 07-Oct-2024 13:05 | 1624414 | ||
| CSPA2_TS_DEWT_102022.nc | 07-Oct-2024 13:47 | 1626727 | ||
| CSPA2_TS_DEWT_102023.nc | 07-Oct-2024 14:36 | 1626379 | ||
| CSPA2_TS_DEWT_102024.nc | 12-Jan-2025 21:17 | 423502 | ||
| CSPA2_TS_DEWT_102025.nc | 01-Nov-2025 04:51 | 1161332 | ||
| CSPA2_TS_DEWT_112007.nc | 07-Oct-2024 05:41 | 1471352 | ||
| CSPA2_TS_DEWT_112008.nc | 07-Oct-2024 05:56 | 1476856 | ||
| CSPA2_TS_DEWT_112009.nc | 07-Oct-2024 06:12 | 1476753 | ||
| CSPA2_TS_DEWT_112010.nc | 07-Oct-2024 06:35 | 1475828 | ||
| CSPA2_TS_DEWT_112011.nc | 07-Oct-2024 06:57 | 1476288 | ||
| CSPA2_TS_DEWT_112012.nc | 07-Oct-2024 07:21 | 1476730 | ||
| CSPA2_TS_DEWT_112013.nc | 07-Oct-2024 07:56 | 1477073 | ||
| CSPA2_TS_DEWT_112014.nc | 07-Oct-2024 08:34 | 1475665 | ||
| CSPA2_TS_DEWT_112015.nc | 07-Oct-2024 09:07 | 1475211 | ||
| CSPA2_TS_DEWT_112016.nc | 07-Oct-2024 09:49 | 1477128 | ||
| CSPA2_TS_DEWT_112017.nc | 07-Oct-2024 10:25 | 1475411 | ||
| CSPA2_TS_DEWT_112018.nc | 07-Oct-2024 11:08 | 1476019 | ||
| CSPA2_TS_DEWT_112019.nc | 07-Oct-2024 11:49 | 1476950 | ||
| CSPA2_TS_DEWT_112020.nc | 07-Oct-2024 12:22 | 1476482 | ||
| CSPA2_TS_DEWT_112021.nc | 07-Oct-2024 13:08 | 1476819 | ||
| CSPA2_TS_DEWT_112022.nc | 07-Oct-2024 13:50 | 1476161 | ||
| CSPA2_TS_DEWT_112023.nc | 07-Oct-2024 14:39 | 429698 | ||
| CSPA2_TS_DEWT_112024.nc | 17-Jan-2025 16:24 | 1468446 | ||
| CSPA2_TS_DEWT_112025.nc | 01-Dec-2025 08:22 | 1626788 | ||
| CSPA2_TS_DEWT_122006.nc | 07-Oct-2024 05:21 | 1626697 | ||
| CSPA2_TS_DEWT_122007.nc | 07-Oct-2024 05:43 | 1625024 | ||
| CSPA2_TS_DEWT_122008.nc | 07-Oct-2024 05:58 | 1626959 | ||
| CSPA2_TS_DEWT_122009.nc | 07-Oct-2024 06:15 | 1626547 | ||
| CSPA2_TS_DEWT_122010.nc | 07-Oct-2024 06:37 | 1626249 | ||
| CSPA2_TS_DEWT_122011.nc | 07-Oct-2024 07:01 | 1626366 | ||
| CSPA2_TS_DEWT_122012.nc | 07-Oct-2024 07:25 | 1625644 | ||
| CSPA2_TS_DEWT_122013.nc | 07-Oct-2024 08:00 | 1626651 | ||
| CSPA2_TS_DEWT_122014.nc | 07-Oct-2024 08:37 | 1624661 | ||
| CSPA2_TS_DEWT_122015.nc | 07-Oct-2024 09:11 | 1625528 | ||
| CSPA2_TS_DEWT_122016.nc | 07-Oct-2024 09:51 | 1478129 | ||
| CSPA2_TS_DEWT_122017.nc | 07-Oct-2024 10:29 | 1625284 | ||
| CSPA2_TS_DEWT_122018.nc | 07-Oct-2024 11:12 | 1626903 | ||
| CSPA2_TS_DEWT_122019.nc | 07-Oct-2024 11:52 | 1624520 | ||
| CSPA2_TS_DEWT_122020.nc | 07-Oct-2024 12:25 | 1627012 | ||
| CSPA2_TS_DEWT_122021.nc | 07-Oct-2024 13:12 | 427594 | ||
| CSPA2_TS_DEWT_122022.nc | 07-Oct-2024 13:55 | 1472300 | ||
| CSPA2_TS_DEWT_122023.nc | 07-Oct-2024 14:43 | 1626697 | ||
| CSPA2_TS_DEWT_122024.nc | 22-Jan-2025 17:23 | 1476717 | ||
| CSPA2_TS_DEWT_122025.nc | 01-Jan-2026 09:05 | 1626110 | ||